Location: ??? ???
(33.4974°N, 35.4618°E)
Time: 01:13:04
(UTC+00:00)

Cosmos 2058 - Pass Details

Date: 29 October 2020
Orbit: 562 x 584 km, 82.5° (Epoch: 25 November)

Event Time Altitude Azimuth Distance (km) Brightness Sun altitude
Rises 15:56:42 0° 359° (N) 2,757 6.3 -14.7°
Reaches altitude 10° 15:58:56 10° 5° (N) 1,858 5.4 -15.2°
Maximum altitude 16:02:55 50° 81° (E) 717 3.0 -16.0°
Drops below altitude 10° 16:06:53 10° 158° (SSE) 1,852 5.3 -16.8°
Sets 16:09:06 0° 164° (SSE) 2,747 6.3 -17.3°
